User: anonymous   Login
Location: Colle Santa Colomba
(42.0333°N, 12.5667°E)
Time: 10:52:24
(UTC+00:00)
Language:

FALCON 9 DEB - Orbit

View from above orbital plane
View from above orbital plane
View from above satellite
View from above satellite

Ground track
Ground track

The orbit data is extracted from the following two-line orbital elements,

1 46085U 20055BL  22017.82960762  .00071617  00000-0  40056-3 0  9997
2 46085  53.0013 217.3978 0006748 228.3525 131.6917 15.78697436 87331
Epoch (UTC): 17 January 2022 19:54:38
Eccentricity: 0.0006748
inclination: 53.0013°
perigee height: 329 km
apogee height: 338 km
right ascension of ascending node: 217.3978°
argument of perigee: 228.3525°
revolutions per day: 15.78697436
mean anomaly at epoch: 131.6917°
orbit number at epoch: 8733

The dashed part of the orbit path shows where the satellite is in the earth's shadow,  

DLR